MYTBM LIPQ-LOWS

Flight info

Callsign MYTBM
Flight time 0h 39m
Altitude 19000
Route LUPIN P125 URAVA DCT RASTA RASTA2R
Aircraft TBM8/L-SDFGRWY/S

Departure

Time 2026-04-24 08:19
Airport Trieste Airport (LIPQ)

Arrival

Time 2026-04-24 08:59
Airport Salzburg Airport (LOWS)
Time Latitude Longitude Altitude Speed Heading
2026-04-24 08:07 45.82286 13.48125 42 ft 0 kts 350°
2026-04-24 08:17 45.82292 13.48127 42 ft 3 kts 39°
2026-04-24 08:17 45.82322 13.48174 42 ft 13 kts 338°
2026-04-24 08:18 45.82407 13.48078 42 ft 19 kts 320°
2026-04-24 08:18 45.82519 13.47938 42 ft 24 kts 320°
2026-04-24 08:18 45.82653 13.47779 42 ft 26 kts 320°
2026-04-24 08:18 45.82774 13.47649 43 ft 13 kts 296°
2026-04-24 08:19 45.82782 13.47486 42 ft 36 kts 271°
2026-04-24 08:19 45.82786 13.46812 41 ft 97 kts 270°
2026-04-24 08:19 45.82793 13.45681 257 ft 120 kts 269°
2026-04-24 08:19 45.82814 13.44422 640 ft 136 kts 271°
2026-04-24 08:20 45.82849 13.43063 1213 ft 137 kts 271°
2026-04-24 08:20 45.82871 13.41685 1808 ft 137 kts 270°
2026-04-24 08:20 45.82858 13.40321 2436 ft 138 kts 270°
2026-04-24 08:20 45.82871 13.38948 3070 ft 136 kts 271°
2026-04-24 08:21 45.82894 13.37618 3684 ft 135 kts 271°
2026-04-24 08:21 45.82744 13.36299 4272 ft 136 kts 240°
2026-04-24 08:21 45.82040 13.35406 4852 ft 139 kts 209°
2026-04-24 08:21 45.81168 13.34851 5488 ft 137 kts 204°
2026-04-24 08:22 45.80261 13.34357 6035 ft 141 kts 205°
2026-04-24 08:22 45.79348 13.33794 6585 ft 145 kts 206°
2026-04-24 08:22 45.78413 13.33218 7096 ft 148 kts 206°
2026-04-24 08:22 45.77451 13.32616 7539 ft 156 kts 206°
2026-04-24 08:23 45.76441 13.31976 8047 ft 160 kts 206°
2026-04-24 08:23 45.75426 13.31344 8575 ft 162 kts 205°
2026-04-24 08:23 45.74381 13.30690 9115 ft 165 kts 206°
2026-04-24 08:23 45.73318 13.30029 9640 ft 168 kts 206°
2026-04-24 08:24 45.72235 13.29352 10153 ft 171 kts 205°
2026-04-24 08:24 45.71138 13.28668 10615 ft 173 kts 206°
2026-04-24 08:24 45.70088 13.27822 11098 ft 173 kts 229°
2026-04-24 08:24 45.69551 13.26326 11566 ft 169 kts 263°
2026-04-24 08:25 45.69656 13.24703 12042 ft 163 kts 297°
2026-04-24 08:25 45.70322 13.23450 12529 ft 157 kts 328°
2026-04-24 08:25 45.71301 13.22889 13010 ft 154 kts 356°
2026-04-24 08:25 45.72346 13.23114 13510 ft 153 kts 23°
2026-04-24 08:26 45.73172 13.24075 14004 ft 157 kts 51°
2026-04-24 08:26 45.73631 13.25523 14443 ft 161 kts 65°
2026-04-24 08:26 45.74045 13.27020 14887 ft 161 kts 64°
2026-04-24 08:26 45.74547 13.28411 15316 ft 158 kts 42°
2026-04-24 08:27 45.75475 13.29222 15756 ft 157 kts 28°
2026-04-24 08:27 45.76434 13.29988 16196 ft 158 kts 31°
2026-04-24 08:27 45.77379 13.30809 16630 ft 159 kts 32°
2026-04-24 08:27 45.78312 13.31676 17074 ft 160 kts 34°
2026-04-24 08:28 45.79241 13.32559 17506 ft 160 kts 34°
2026-04-24 08:28 45.80163 13.33433 17931 ft 161 kts 34°
2026-04-24 08:28 45.81102 13.34326 18359 ft 162 kts 34°
2026-04-24 08:28 45.82049 13.35225 18743 ft 163 kts 34°
2026-04-24 08:29 45.83007 13.36057 19092 ft 166 kts 24°
2026-04-24 08:29 45.84210 13.36448 19137 ft 188 kts 14°
2026-04-24 08:29 45.85565 13.36814 19140 ft 207 kts 15°
2026-04-24 08:29 45.87035 13.37244 19139 ft 223 kts 15°
2026-04-24 08:30 45.88608 13.37705 19141 ft 236 kts 14°
2026-04-24 08:30 45.90250 13.38182 19140 ft 246 kts 14°
2026-04-24 08:30 45.91954 13.38679 19140 ft 253 kts 14°
2026-04-24 08:30 45.93700 13.39189 19140 ft 259 kts 14°
2026-04-24 08:31 45.95458 13.39700 19142 ft 263 kts 14°
2026-04-24 08:31 45.97260 13.40225 19143 ft 266 kts 14°
2026-04-24 08:31 45.99080 13.40758 19144 ft 268 kts 14°
2026-04-24 08:31 46.00913 13.41296 19145 ft 270 kts 14°
2026-04-24 08:32 46.02757 13.41825 19143 ft 271 kts 14°
2026-04-24 08:32 46.04610 13.42348 19145 ft 272 kts 14°
2026-04-24 08:32 46.06471 13.42881 19144 ft 272 kts 14°
2026-04-24 08:32 46.08333 13.43414 19145 ft 273 kts 14°
2026-04-24 08:33 46.10199 13.43950 19149 ft 273 kts 14°
2026-04-24 08:33 46.12066 13.44485 19148 ft 274 kts 14°
2026-04-24 08:33 46.13937 13.45020 19148 ft 274 kts 14°
2026-04-24 08:33 46.15802 13.45555 19147 ft 273 kts 14°
2026-04-24 08:34 46.17665 13.46090 19146 ft 273 kts 14°
2026-04-24 08:34 46.19511 13.46624 19146 ft 274 kts 14°
2026-04-24 08:34 46.21382 13.47161 19143 ft 274 kts 14°
2026-04-24 08:34 46.23253 13.47704 19144 ft 274 kts 14°
2026-04-24 08:35 46.25121 13.48270 19145 ft 274 kts 15°
2026-04-24 08:35 46.26988 13.48841 19139 ft 274 kts 14°
2026-04-24 08:35 46.28855 13.49397 19142 ft 274 kts 14°
2026-04-24 08:35 46.30727 13.49957 19148 ft 276 kts 14°
2026-04-24 08:36 46.32612 13.50527 19140 ft 276 kts 14°
2026-04-24 08:36 46.34495 13.51092 19136 ft 276 kts 14°
2026-04-24 08:36 46.36371 13.51654 19133 ft 275 kts 14°
2026-04-24 08:36 46.38244 13.52219 19137 ft 275 kts 14°
2026-04-24 08:37 46.40117 13.52787 19137 ft 275 kts 14°
2026-04-24 08:37 46.42014 13.53197 19113 ft 278 kts
2026-04-24 08:37 46.43944 13.52911 19129 ft 279 kts 357°
2026-04-24 08:37 46.45872 13.52628 19125 ft 279 kts 358°
2026-04-24 08:38 46.47803 13.52388 19128 ft 278 kts 359°
2026-04-24 08:38 46.49728 13.52128 19132 ft 278 kts 358°
2026-04-24 08:38 46.51627 13.51862 19127 ft 278 kts 358°
2026-04-24 08:38 46.53554 13.51595 19121 ft 278 kts 358°
2026-04-24 08:39 46.55477 13.51333 19129 ft 277 kts 358°
2026-04-24 08:39 46.57399 13.51066 19131 ft 278 kts 358°
2026-04-24 08:39 46.59326 13.50801 19133 ft 278 kts 358°
2026-04-24 08:39 46.61255 13.50537 19129 ft 277 kts 358°
2026-04-24 08:40 46.63175 13.50272 19130 ft 276 kts 358°
2026-04-24 08:40 46.65083 13.50005 19132 ft 274 kts 358°
2026-04-24 08:40 46.66984 13.49743 19133 ft 275 kts 358°
2026-04-24 08:40 46.68890 13.49482 19123 ft 275 kts 358°
2026-04-24 08:41 46.70774 13.49218 19123 ft 275 kts 358°
2026-04-24 08:41 46.72684 13.48955 19127 ft 275 kts 358°
2026-04-24 08:41 46.74592 13.48694 19125 ft 275 kts 358°
2026-04-24 08:41 46.76501 13.48425 19132 ft 276 kts 358°
2026-04-24 08:42 46.78422 13.48158 19129 ft 277 kts 358°
2026-04-24 08:42 46.80347 13.47894 19127 ft 277 kts 358°
2026-04-24 08:42 46.82269 13.47626 19126 ft 276 kts 357°
2026-04-24 08:42 46.84158 13.47360 19134 ft 276 kts 358°
2026-04-24 08:43 46.86073 13.47096 19134 ft 276 kts 358°
2026-04-24 08:43 46.87984 13.46831 19140 ft 275 kts 357°
2026-04-24 08:43 46.89888 13.46565 19141 ft 275 kts 357°
2026-04-24 08:43 46.91795 13.46299 19137 ft 276 kts 357°
2026-04-24 08:44 46.93692 13.46035 19144 ft 271 kts 357°
2026-04-24 08:44 46.95574 13.45767 19154 ft 273 kts 357°
2026-04-24 08:44 46.97468 13.45505 19154 ft 274 kts 357°
2026-04-24 08:44 46.99359 13.45243 19153 ft 276 kts 357°
2026-04-24 08:45 47.01270 13.44976 19161 ft 276 kts 357°
2026-04-24 08:45 47.03175 13.44711 19151 ft 273 kts 357°
2026-04-24 08:45 47.05052 13.44442 19156 ft 270 kts 357°
2026-04-24 08:45 47.06927 13.44175 19162 ft 271 kts 358°
2026-04-24 08:46 47.08813 13.43916 19161 ft 273 kts 358°
2026-04-24 08:46 47.10709 13.43651 19177 ft 274 kts 358°
2026-04-24 08:46 47.12611 13.43384 19166 ft 274 kts 357°
2026-04-24 08:46 47.14505 13.43110 19174 ft 273 kts 357°
2026-04-24 08:47 47.16398 13.42851 19172 ft 274 kts 357°
2026-04-24 08:47 47.18296 13.42583 19182 ft 274 kts 357°
2026-04-24 08:47 47.20172 13.42319 19178 ft 274 kts 357°
2026-04-24 08:47 47.22071 13.42050 19178 ft 274 kts 357°
2026-04-24 08:48 47.23977 13.41778 19178 ft 276 kts 357°
2026-04-24 08:48 47.25903 13.41510 19020 ft 283 kts 356°
2026-04-24 08:48 47.27886 13.41235 18770 ft 290 kts 356°
2026-04-24 08:48 47.29915 13.40950 18513 ft 294 kts 356°
2026-04-24 08:49 47.31954 13.40658 18226 ft 295 kts 356°
2026-04-24 08:49 47.34002 13.40367 17939 ft 296 kts 356°
2026-04-24 08:49 47.36057 13.40077 17654 ft 297 kts 356°
2026-04-24 08:49 47.38118 13.39787 17366 ft 298 kts 356°
2026-04-24 08:50 47.40159 13.39497 17086 ft 298 kts 356°
2026-04-24 08:50 47.42228 13.39203 16805 ft 299 kts 356°
2026-04-24 08:50 47.44296 13.38907 16533 ft 297 kts 356°
2026-04-24 08:50 47.46353 13.38615 16254 ft 296 kts 356°
2026-04-24 08:51 47.48404 13.38317 15973 ft 295 kts 355°
2026-04-24 08:51 47.50360 13.37406 15681 ft 298 kts 333°
2026-04-24 08:51 47.52093 13.35719 15409 ft 296 kts 330°
2026-04-24 08:51 47.53717 13.33832 15078 ft 300 kts 319°
2026-04-24 08:52 47.55109 13.31744 14621 ft 264 kts 318°
2026-04-24 08:52 47.56259 13.29935 14108 ft 222 kts 316°
2026-04-24 08:52 47.57217 13.28311 13544 ft 198 kts 315°
2026-04-24 08:52 47.58090 13.26832 12979 ft 184 kts 317°
2026-04-24 08:53 47.58947 13.25474 12407 ft 178 kts 317°
2026-04-24 08:53 47.59829 13.24092 11859 ft 194 kts 317°
2026-04-24 08:53 47.60460 13.23118 11501 ft 201 kts 317°
2026-04-24 08:53 47.61461 13.21616 10927 ft 205 kts 318°
2026-04-24 08:54 47.62464 13.20140 10337 ft 201 kts 318°
2026-04-24 08:54 47.63444 13.18696 9713 ft 196 kts 318°
2026-04-24 08:54 47.64723 13.16840 8855 ft 192 kts 319°
2026-04-24 08:54 47.65405 13.15971 8425 ft 190 kts 322°
2026-04-24 08:55 47.66423 13.14780 7810 ft 188 kts 322°
2026-04-24 08:55 47.67461 13.13612 7193 ft 186 kts 322°
2026-04-24 08:55 47.68526 13.12528 6596 ft 185 kts 330°
2026-04-24 08:55 47.69710 13.11802 5971 ft 181 kts 335°
2026-04-24 08:56 47.70820 13.11162 5330 ft 163 kts 335°
2026-04-24 08:56 47.71853 13.10577 4691 ft 156 kts 335°
2026-04-24 08:56 47.72792 13.09874 4096 ft 147 kts 317°
2026-04-24 08:56 47.73439 13.08794 3603 ft 138 kts 304°
2026-04-24 08:57 47.74026 13.07678 3291 ft 133 kts 305°
2026-04-24 08:57 47.74562 13.06544 2989 ft 135 kts 302°
2026-04-24 08:57 47.75084 13.05396 2778 ft 132 kts 303°
2026-04-24 08:57 47.75595 13.04356 2556 ft 120 kts 305°
2026-04-24 08:58 47.76104 13.03396 2285 ft 120 kts 309°
2026-04-24 08:58 47.76673 13.02477 2027 ft 120 kts 315°
2026-04-24 08:58 47.77323 13.01732 1795 ft 107 kts 327°
2026-04-24 08:58 47.77931 13.01285 1591 ft 93 kts 334°
2026-04-24 08:59 47.78517 13.00906 1429 ft 89 kts 332°
2026-04-24 08:59 47.79005 13.00600 1414 ft 57 kts 337°
2026-04-24 08:59 47.79254 13.00443 1415 ft 28 kts 339°
2026-04-24 08:59 47.79409 13.00323 1418 ft 15 kts 300°
2026-04-24 09:00 47.79381 13.00154 1415 ft 13 kts 254°
2026-04-24 09:00 47.79421 13.00073 1415 ft 10 kts 334°
2026-04-24 09:00 47.79496 13.00024 1415 ft 14 kts 339°
2026-04-24 09:00 47.79564 12.99956 1415 ft 8 kts 274°
2026-04-24 09:01 47.79548 12.99896 1415 ft 6 kts 248°
2026-04-24 09:01 47.79517 12.99854 1415 ft 7 kts 215°
2026-04-24 09:01 47.79499 12.99796 1415 ft 4 kts 246°
2026-04-24 09:01 47.79504 12.99770 1415 ft 4 kts 347°
2026-04-24 09:02 47.79510 12.99767 1415 ft 0 kts 337°